Bradford, PA

8:35 PM EDT on October 19, 2017 (GMT -0400)
Bradford Regional

Weather History for KBFD - April, 2014

Change the Weather History Date:

Saturday, April 5, 2014

  Actual Average Record
Temperature  
Mean Temperature 31 °F 40 °F  
Max Temperature 38 °F 50 °F 75 °F (1985)
Min Temperature 23 °F 29 °F 12 °F (1965)
Degree Days  
Heating Degree Days 34 20  
Month to date heating degree days 119 104  
Since 1 July heating degree days 6962 6711  
Cooling Degree Days 0 0  
Month to date cooling degree days 0 0  
Year to date cooling degree days 0 0  
Moisture  
Dew Point 24 °F    
Average Humidity 69    
Maximum Humidity 78    
Minimum Humidity 59    
Precipitation  
Precipitation 0.03 in 0.12 in 1.00 in (1969)
Month to date precipitation 0.89 0.61  
Year to date precipitation 6.42 9.62  
Sea Level Pressure  
Sea Level Pressure 29.88 in    
Wind  
Wind Speed 12 mph (West)    
Max Wind Speed 24 mph    
Max Gust Speed 36 mph    
Visibility 8 miles    
Events Rain , Snow    
T = Trace of Precipitation, MM = Missing Value Source: NWS Daily Summary

Daily Weather History Graph

Daily Weather History Graph

Search for Another Location

Airport or City:

Trip Planner

Search our weather history database for the weather conditions in past years. The results will help you decide how hot, cold, wet, or windy it might be!

Date:

Astronomy

Apr. 05, 2014 Rise Set
Actual Time 6:50 AM EDT 7:44 PM EDT
Civil Twilight 6:22 AM EDT 8:12 PM EDT
Nautical Twilight 5:48 AM EDT 8:46 PM EDT
Astronomical Twilight 5:13 AM EDT 9:21 PM EDT
Moon 10:53 AM EDT (4/5) 12:55 AM EDT (4/5)
Length of Visible Light 13h 50m
Length of Day
12h 53m
Waxing Crescent, 34% of the Moon is Illuminated
Apr 5
Waxing Crescent
Apr 7
First Quarter
Apr 15
Full
Apr 22
Last Quarter
Apr 29
New

Hourly Weather History & Observations

Time (EDT) Temp. Windchill Dew Point Humidity Pressure Visibility Wind Dir Wind Speed Gust Speed Precip Events Conditions
12:26 AM 39.9 °F 32.9 °F 32.0 °F 73% 29.69 in 10.0 mi West 11.5 mph 21.9 mph N/A   Overcast
12:51 AM 37.4 °F 30.3 °F 30.2 °F 75% 29.69 in 10.0 mi West 10.4 mph 20.7 mph N/A   Overcast
12:53 AM 37.9 °F 30.5 °F 30.9 °F 76% 29.72 in 10.0 mi West 11.5 mph 19.6 mph N/A   Overcast
1:02 AM 37.9 °F 31.5 °F 30.9 °F 76% 29.70 in 10.0 mi West 9.2 mph 19.6 mph N/A   Overcast
1:53 AM 37.0 °F 29.8 °F 30.0 °F 76% 29.74 in 10.0 mi West 10.4 mph 19.6 mph 0.00 in   Overcast
2:16 AM 34.0 °F 23.4 °F 28.9 °F 82% 29.72 in 4.0 mi West 17.3 mph 32.2 mph 0.00 in Snow Light Snow
2:50 AM 33.8 °F 24.3 °F 28.4 °F 81% 29.73 in 5.0 mi WSW 13.8 mph 20.7 mph 0.00 in Rain Light Rain
2:53 AM 33.1 °F 23.9 °F 28.9 °F 85% 29.76 in 5.0 mi West 12.7 mph 20.7 mph 0.00 in Rain Light Rain
3:01 AM 33.1 °F 21.9 °F 28.9 °F 85% 29.73 in 2.5 mi WSW 18.4 mph 27.6 mph 0.00 in Snow Light Snow
3:08 AM 33.1 °F 23.9 °F 28.0 °F 82% 29.72 in 8.0 mi WSW 12.7 mph 27.6 mph 0.00 in Rain Light Rain
3:15 AM 33.1 °F 24.4 °F 27.0 °F 78% 29.73 in 10.0 mi WSW 11.5 mph 31.1 mph 0.00 in   Overcast
3:39 AM 33.1 °F 23.9 °F 26.1 °F 75% 29.72 in 10.0 mi WSW 12.7 mph 24.2 mph 0.00 in   Overcast
3:53 AM 33.1 °F 23.9 °F 26.1 °F 75% 29.76 in 10.0 mi WSW 12.7 mph 20.7 mph 0.00 in   Overcast
4:53 AM 33.1 °F 25.5 °F 25.0 °F 72% 29.76 in 10.0 mi West 9.2 mph 23.0 mph N/A   Overcast
5:53 AM 33.1 °F 23.0 °F 25.0 °F 72% 29.78 in 5.0 mi West 15.0 mph 26.5 mph 0.00 in Snow Light Snow
6:53 AM 32.0 °F 21.6 °F 24.1 °F 73% 29.80 in 10.0 mi West 15.0 mph 33.4 mph 0.01 in   Overcast
7:25 AM 32.0 °F 20.5 °F 23.0 °F 69% 29.78 in 5.0 mi West 18.4 mph 26.5 mph 0.00 in Snow Light Snow
7:53 AM 32.0 °F 22.5 °F 24.1 °F 73% 29.82 in 6.0 mi West 12.7 mph 26.5 mph 0.00 in Snow Light Snow
8:15 AM 30.9 °F 22.2 °F 25.0 °F 79% 29.80 in 2.5 mi West 10.4 mph 23.0 mph 0.00 in Snow Light Snow
8:29 AM 30.9 °F 21.2 °F 25.0 °F 79% 29.80 in 1.2 mi West 12.7 mph 19.6 mph 0.01 in Snow Light Snow
8:43 AM 30.9 °F 19.4 °F 26.1 °F 82% 29.81 in 3.0 mi West 17.3 mph 25.3 mph 0.01 in Snow Light Snow
8:53 AM 30.9 °F 19.8 °F 24.1 °F 76% 29.85 in 8.0 mi WNW 16.1 mph 27.6 mph 0.01 in   Overcast
9:39 AM 30.0 °F 20.5 °F 23.0 °F 75% 29.84 in 1.8 mi West 11.5 mph 24.2 mph 0.01 in Snow Light Snow
9:50 AM 30.2 °F 18.5 °F 23.0 °F 75% 29.85 in 3.0 mi West 17.3 mph 25.3 mph 0.01 in Snow Light Snow
9:53 AM 30.0 °F 19.5 °F 23.0 °F 75% 29.88 in 6.0 mi WNW 13.8 mph 25.3 mph 0.01 in Snow Light Snow
10:53 AM 28.9 °F 15.4 °F 21.9 °F 75% 29.93 in 10.0 mi West 21.9 mph 29.9 mph 0.00 in   Overcast
11:36 AM 28.9 °F 15.8 °F 19.9 °F 69% 29.91 in 10.0 mi West 20.7 mph 36.8 mph 0.00 in   Overcast
11:53 AM 28.9 °F 16.5 °F 21.0 °F 72% 29.96 in 10.0 mi West 18.4 mph 28.8 mph 0.00 in   Overcast
12:53 PM 28.9 °F 16.5 °F 19.9 °F 69% 30.00 in 10.0 mi West 18.4 mph 26.5 mph N/A   Overcast
1:53 PM 28.9 °F 16.9 °F 19.9 °F 69% 30.02 in 10.0 mi West 17.3 mph 27.6 mph N/A   Overcast
2:53 PM 30.0 °F 19.1 °F 19.9 °F 66% 30.04 in 10.0 mi West 15.0 mph 20.7 mph N/A   Overcast
3:53 PM 32.0 °F 22.1 °F 21.0 °F 64% 30.05 in 10.0 mi WNW 13.8 mph 25.3 mph N/A   Overcast
4:53 PM 32.0 °F 21.6 °F 21.0 °F 64% 30.07 in 10.0 mi West 15.0 mph - N/A   Mostly Cloudy
5:53 PM 33.1 °F 24.9 °F 21.0 °F 61% 30.09 in 10.0 mi WNW 10.4 mph - N/A   Mostly Cloudy
6:10 PM 32.0 °F 22.5 °F 19.9 °F 61% 30.04 in 10.0 mi WNW 12.7 mph - N/A   Scattered Clouds
6:53 PM 32.0 °F 23.0 °F 19.9 °F 61% 30.12 in 10.0 mi WNW 11.5 mph - N/A   Partly Cloudy
7:53 PM 30.9 °F 23.5 °F 19.9 °F 64% 30.13 in 10.0 mi WNW 8.1 mph - N/A   Partly Cloudy
8:53 PM 30.0 °F 23.2 °F 19.9 °F 66% 30.15 in 10.0 mi WNW 6.9 mph - N/A   Partly Cloudy
9:53 PM 28.9 °F 21.9 °F 19.9 °F 69% 30.17 in 10.0 mi WNW 6.9 mph - N/A   Clear
10:53 PM 28.9 °F 22.8 °F 19.9 °F 69% 30.18 in 10.0 mi West 5.8 mph - N/A   Clear
11:53 PM 28.0 °F 21.7 °F 19.9 °F 72% 30.19 in 10.0 mi West 5.8 mph - N/A   Clear